Wind_Speed
21 21 22 23 23 24 25 25 25 24 22 20 19 19 17 16 15 13 11 10 10 10 10 10 9 9 9 9 8 8 9 11 13 15 18 21 23 23 23 24 24 23 23 24 25 26 27 30 35 38 38 37 35 32 28 26 26 27 27 25 22 19 15 13 15 15 15 15 15 14 17 21 22 22 22 23 24 21 17 15 13 12 7 6 10 10 11 15
20 21 22 23 23 24 25 26 26 24 22 20 18 18 16 15 14 13 11 10 10 10 11 11 10 10 9 9 9 9 8 9 11 12 14 18 21 22 22 22 23 24 23 24 25 26 27 28 32 37 39 39 39 35 30 27 27 28 27 25 22 18 16 15 15 14 13 14 14 13 15 19 20 20 20 22 25 24 21 18 16 13 9 9 11 11 13 16
21 22 22 23 23 24 25 26 26 24 22 19 18 17 15 14 13 12 12 12 12 12 13 13 13 12 11 11 10 10 9 9 10 10 11 14 18 21 21 21 22 23 24 24 24 25 26 26 28 34 38 39 40 39 34 29 27 28 27 24 21 18 17 18 17 14 12 13 13 12 13 16 18 19 19 22 27 27 23 20 18 15 11 11 12 12 13 15
21 22 22 23 23 24 25 25 25 24 21 19 17 16 14 13 12 12 12 13 13 13 14 15 15 15 14 13 12 11 10 9 10 9 9 12 13 17 19 20 21 23 24 24 24 25 25 25 26 30 36 38 40 40 38 33 29 27 25 22 21 21 19 18 20 16 12 12 12 12 12 15 19 19 18 19 22 23 23 22 20 15 12 12 13 13 14 15
22 22 22 22 23 23 24 24 24 23 21 19 16 14 14 13 12 12 13 14 14 14 14 14 15 15 15 14 13 12 10 10 11 9 10 11 10 13 17 18 20 22 24 25 25 25 25 26 26 28 33 37 39 40 40 36 30 28 27 24 22 22 20 18 18 16 13 13 14 14 13 15 20 21 19 18 17 19 22 23 20 16 14 13 13 13 14 15
22 22 22 22 23 23 23 24 23 22 21 18 16 13 13 12 12 13 13 14 14 14 14 15 15 15 15 14 13 13 10 10 11 9 10 10 10 11 14 16 18 21 23 25 25 25 25 25 26 27 30 35 38 39 39 37 33 32 30 27 23 22 21 19 17 18 18 16 16 15 14 16 20 22 22 20 20 24 26 24 20 18 17 15 14 14 14 16
22 23 22 22 22 23 23 23 23 22 20 18 15 13 12 12 12 13 14 14 14 14 15 16 16 16 16 15 14 12 11 11 10 10 10 10 10 10 12 14 16 20 22 24 25 25 25 25 25 25 28 32 35 36 36 35 35 36 33 28 25 23 21 19 18 19 19 17 15 15 15 15 19 23 23 22 22 25 26 23 19 18 17 16 16 16 15 17
22 22 22 22 22 23 23 22 22 22 20 17 14 12 12 12 13 13 14 15 15 15 16 18 19 18 17 16 15 12 12 12 10 11 11 11 11 10 11 13 15 19 22 24 26 26 25 25 25 25 26 29 32 33 34 35 36 38 36 32 27 23 20 18 18 18 18 18 17 16 15 14 16 21 22 21 22 23 22 20 17 15 15 15 16 17 17 16
22 22 22 21 22 22 22 21 22 21 19 16 14 12 12 12 13 14 15 16 16 17 20 22 20 17 14 13 13 12 14 13 11 12 11 11 12 12 12 12 14 17 21 24 25 26 25 25 25 26 26 26 29 32 34 35 38 38 36 35 30 23 19 17 18 18 17 16 16 14 13 12 13 18 21 20 21 19 17 17 16 14 14 16 16 18 18 16
23 22 21 21 21 21 21 21 21 19 17 15 14 13 12 13 14 14 15 16 17 20 24 23 19 14 10 10 10 10 14 14 13 13 11 12 12 13 13 12 13 15 20 23 25 26 26 27 28 27 26 26 29 31 32 35 39 39 36 35 33 26 20 18 18 18 17 16 15 13 11 11 11 17 20 19 20 17 15 18 20 18 17 17 17 18 18 18
23 22 21 21 21 21 20 21 20 18 15 14 14 13 13 13 13 15 15 16 20 24 24 20 15 12 8 7 9 10 13 14 13 13 12 12 12 13 13 13 13 14 18 22 25 27 27 28 28 27 25 27 29 30 33 36 37 37 37 35 32 28 23 20 19 18 18 17 15 13 11 11 12 15 18 17 18 18 18 20 23 22 20 19 18 17 19 21
23 22 21 21 20 20 20 20 19 17 14 14 14 13 13 12 13 14 15 18 23 24 20 15 13 10 7 7 9 10 11 12 12 12 12 12 13 13 13 13 13 14 17 21 24 26 25 25 26 27 24 25 29 28 31 35 33 33 34 33 30 27 25 22 21 21 19 17 15 13 10 11 13 15 17 18 18 19 19 20 21 21 20 20 19 18 20 20
23 23 21 20 20 19 20 19 18 16 14 14 13 12 12 11 12 14 17 21 23 20 16 14 12 7 5 5 6 8 9 9 10 10 10 12 13 13 14 14 13 13 16 19 23 25 24 24 26 27 22 22 27 27 27 29 27 28 28 29 29 26 24 23 22 23 22 19 16 14 12 12 15 17 18 19 20 20 20 20 20 19 20 21 20 20 20 19
23 23 21 20 19 19 19 19 17 15 14 13 12 11 10 11 12 15 19 22 21 17 16 14 9 6 4 4 4 7 8 8 8 8 9 11 13 14 14 14 13 13 15 18 22 23 24 25 26 26 22 20 27 25 24 25 22 24 24 24 26 25 24 24 24 24 24 23 18 14 13 13 16 17 19 20 21 22 21 21 20 20 20 22 22 20 19 19
24 23 21 20 19 19 19 18 16 14 13 13 11 10 9 11 13 16 19 21 19 16 15 13 8 5 3 3 5 6 6 7 6 6 8 11 13 14 15 15 13 12 14 17 21 23 24 26 26 26 22 21 25 24 23 25 21 24 24 22 25 27 26 25 25 25 25 24 19 15 14 13 15 17 19 21 22 22 21 21 21 21 21 21 22 19 19 19
24 23 21 20 19 19 19 17 15 13 13 11 10 9 9 11 12 16 20 22 19 14 13 12 8 5 3 4 7 7 6 5 4 5 8 10 13 14 14 14 13 12 13 16 20 23 24 26 27 25 24 23 23 24 25 24 22 25 24 23 27 28 28 26 26 26 25 22 19 17 15 13 14 16 17 20 21 20 20 21 22 22 22 22 21 20 21 21
24 23 21 20 19 19 18 17 14 12 12 10 10 8 9 10 11 15 20 22 19 14 13 13 11 6 4 8 9 8 7 5 3 4 7 10 12 14 14 14 13 12 14 16 20 24 26 28 28 24 22 23 22 25 26 22 24 28 22 22 27 28 30 28 26 26 24 21 20 20 18 13 12 14 15 18 19 18 20 22 23 23 23 22 21 21 21 21
24 22 21 19 19 19 18 16 13 11 11 9 9 8 8 10 9 12 19 23 21 17 14 13 12 8 6 11 10 6 7 6 3 4 7 10 13 14 14 14 14 14 15 18 22 25 28 28 25 22 23 24 22 26 27 24 30 31 24 24 26 25 27 29 27 25 23 21 21 21 19 15 12 12 14 16 18 18 20 22 23 24 23 21 21 19 19 18
23 22 20 19 19 19 17 16 12 11 10 9 9 7 7 9 10 12 16 21 24 21 17 15 13 10 9 11 10 7 6 5 3 4 7 10 13 14 15 14 14 15 17 20 24 26 28 26 23 25 27 25 23 25 22 20 27 29 24 25 26 24 24 26 26 24 22 21 20 20 18 17 14 13 14 17 18 19 21 22 23 23 21 20 19 18 17 15
23 22 20 19 19 19 17 15 12 10 9 8 8 7 7 8 8 11 14 18 24 24 20 16 13 12 11 10 9 7 6 4 1 3 7 11 13 15 16 16 16 17 19 21 25 27 26 24 24 26 26 24 23 24 16 14 23 27 24 23 24 24 22 23 24 23 22 21 20 19 16 15 14 12 14 17 19 21 22 22 23 24 22 19 18 17 15 14
23 22 20 19 19 19 17 15 13 10 8 7 7 7 7 7 5 8 13 17 22 24 21 16 12 12 12 11 9 7 5 3 3 4 8 12 15 16 17 18 18 17 18 20 25 28 24 20 23 25 24 23 25 24 17 16 23 27 25 23 22 23 21 21 21 22 22 21 19 18 15 13 12 12 13 17 20 22 22 21 22 25 24 22 19 17 15 15
22 21 20 19 19 19 16 15 13 11 9 7 6 7 7 7 5 7 12 14 17 21 22 17 14 13 13 11 10 9 5 4 5 6 11 14 17 19 19 20 19 15 16 21 27 27 20 17 23 25 23 24 27 23 17 21 26 24 23 23 22 22 22 20 19 20 21 18 16 15 14 13 13 13 14 16 19 22 22 21 22 23 25 24 21 18 16 15
22 21 19 19 19 19 17 15 13 11 9 6 6 7 7 7 6 5 8 10 14 20 21 19 15 12 13 12 11 9 6 6 6 9 13 16 20 23 22 18 13 13 17 22 27 24 16 18 23 24 22 24 26 21 17 23 23 18 18 21 23 25 24 23 21 20 19 16 13 12 13 14 13 14 15 17 19 22 23 22 22 23 23 23 22 19 16 14
22 21 19 18 18 19 17 15 13 12 10 7 5 6 7 8 6 5 6 6 13 19 20 19 15 10 11 13 14 10 8 9 9 11 13 17 22 22 19 15 12 15 19 20 21 17 14 19 23 22 21 23 24 20 19 22 19 14 15 18 22 25 25 24 24 20 17 14 11 11 11 13 14 15 16 17 20 23 24 23 22 22 21 21 23 22 18 15
21 21 19 17 18 19 18 15 13 12 11 9 6 5 7 8 7 6 4 3 11 20 19 18 16 12 9 9 12 12 12 12 11 13 15 18 19 19 18 17 15 16 18 18 17 14 14 19 22 21 22 22 21 22 23 21 19 17 15 13 17 25 25 23 23 21 16 12 11 12 7 8 13 15 16 18 20 22 23 22 21 20 20 20 19 17 14 13
21 20 18 17 17 18 18 16 14 11 12 11 8 5 6 8 7 7 4 1 9 21 20 17 16 15 12 8 8 10 13 13 14 15 17 18 17 19 19 18 17 17 18 19 16 15 17 19 22 23 23 22 20 22 22 19 20 19 14 11 15 24 24 21 22 20 15 10 11 12 5 2 8 11 13 16 18 20 21 20 19 19 20 19 16 12 11 13
20 20 18 16 16 17 18 17 15 11 11 12 11 7 5 7 7 8 6 1 7 20 19 17 18 17 15 12 10 11 12 15 17 16 17 18 17 18 17 15 18 18 17 17 15 16 20 21 23 24 23 20 19 20 19 18 20 18 14 13 16 21 20 19 20 16 12 11 12 13 6 1 3 7 10 12 13 16 18 18 18 17 18 18 15 12 13 15
19 20 19 16 15 17 17 17 16 12 10 10 13 11 6 5 7 7 5 2 7 16 15 16 17 17 17 14 12 14 15 17 17 16 18 17 15 15 16 16 18 18 15 16 19 21 23 24 25 25 22 20 21 20 18 19 18 17 17 16 14 14 16 18 15 10 9 10 11 15 9 1 2 9 10 11 12 13 13 15 16 16 16 15 14 14 15 17
19 19 19 16 15 16 17 18 16 13 11 9 11 13 10 6 6 6 4 2 8 14 13 12 14 17 18 15 14 16 18 19 18 17 17 15 12 12 13 14 17 17 14 17 24 25 23 25 26 25 21 20 21 20 18 17 16 20 22 18 14 13 17 18 10 7 9 7 7 14 12 3 2 8 11 10 13 12 11 12 14 14 15 15 15 16 17 19
18 19 19 17 15 15 16 17 17 14 11 10 9 10 11 11 8 5 4 3 9 13 11 10 13 16 15 15 18 19 20 21 21 19 16 15 15 13 13 14 14 16 18 24 27 25 24 25 24 23 19 18 20 20 17 12 13 22 22 18 17 16 17 13 6 8 7 3 5 11 14 9 3 6 11 10 10 11 11 12 13 15 16 17 18 19 19 19
18 18 18 17 15 15 15 16 17 15 11 10 10 8 9 13 13 7 2 2 8 11 10 10 14 17 15 15 19 20 20 21 21 19 18 18 18 17 16 15 15 19 25 28 25 23 23 22 21 20 18 18 19 18 15 11 15 21 21 22 22 16 12 8 6 8 3 1 7 10 12 11 7 6 9 9 9 11 14 16 16 17 18 19 21 21 20 20
17 17 18 17 15 14 15 15 16 16 13 10 10 9 6 8 13 9 2 1 5 8 10 10 13 17 16 15 18 18 17 19 18 18 18 16 16 17 17 19 21 22 21 21 21 22 20 18 18 19 19 19 19 18 17 16 20 22 23 25 21 11 7 4 3 4 1 1 7 11 10 8 10 10 9 10 11 13 16 18 18 20 21 21 22 22 20 20
17 17 17 17 16 14 14 15 16 16 14 11 10 10 8 6 7 9 7 5 5 7 10 11 12 15 14 14 17 16 16 19 17 16 15 13 15 18 18 19 20 20 19 20 22 20 16 14 16 18 19 19 19 21 23 22 23 22 22 21 14 6 4 2 3 2 2 2 6 11 10 5 7 10 13 14 12 12 15 19 21 22 22 22 22 22 21 22
16 16 16 16 16 15 14 14 15 15 14 13 10 10 11 8 4 8 12 12 11 11 12 13 13 13 12 13 15 14 15 16 14 14 14 14 17 18 17 15 16 22 24 22 18 15 12 11 13 16 17 19 21 24 25 23 21 21 19 14 9 6 4 3 4 2 4 4 5 10 8 3 5 8 12 14 14 14 13 15 19 20 20 20 20 20 19 19
15 15 16 16 15 15 14 13 14 14 14 13 12 9 8 7 5 7 10 13 14 14 14 15 13 12 11 12 12 11 13 12 11 13 13 16 18 18 17 17 20 24 21 16 13 12 12 11 13 15 17 21 24 23 23 21 18 21 18 9 6 5 5 7 6 6 9 7 4 9 6 3 6 7 8 9 12 15 16 15 15 16 17 17 16 16 15 15
14 14 14 15 15 14 14 13 12 13 13 13 14 12 9 6 5 6 6 7 8 9 10 10 9 8 9 11 12 12 13 13 13 14 15 16 18 18 19 20 20 17 12 14 14 10 10 12 14 17 19 23 23 21 21 16 13 19 14 5 6 6 6 9 8 7 8 4 2 8 6 4 6 7 9 10 9 11 14 16 15 13 13 13 13 12 12 11
12 13 13 14 14 14 13 13 11 11 12 13 15 13 10 8 6 6 5 5 4 4 6 6 5 6 6 8 12 12 12 12 12 13 14 14 14 16 17 17 14 11 12 16 14 13 16 16 16 18 19 21 21 20 18 11 12 17 11 5 7 7 6 8 6 4 3 1 3 7 8 7 6 4 5 9 9 10 11 13 14 14 13 12 10 9 8 8
10 12 13 13 13 13 13 12 11 10 10 12 15 13 11 9 8 7 7 7 6 5 6 6 7 8 6 6 10 10 9 9 10 11 12 12 13 14 14 12 12 11 11 13 14 18 21 18 15 17 18 18 20 20 12 7 12 14 9 8 7 4 4 6 5 2 1 1 1 4 7 8 8 6 3 3 4 7 9 9 10 12 14 14 12 10 8 7
8 10 11 12 12 12 12 12 11 11 10 12 13 12 11 10 9 8 7 7 7 6 7 7 7 8 7 8 9 9 9 11 11 11 11 11 13 14 11 11 12 10 9 13 17 20 18 13 11 14 15 17 19 16 7 7 13 11 8 9 5 3 3 4 3 2 2 2 1 1 3 4 7 9 8 6 4 4 5 6 6 8 10 13 13 12 9 7
7 9 10 11 11 11 12 11 11 10 10 11 12 12 12 12 10 9 8 8 8 8 8 8 9 10 10 10 10 10 11 10 10 11 11 13 15 14 12 12 12 10 12 16 18 16 14 13 13 13 13 14 16 12 5 7 12 10 8 9 4 2 3 3 3 1 1 1 1 1 1 2 5 6 6 7 7 7 8 7 6 6 6 8 10 9 8 7
5 7 9 11 11 10 10 11 11 10 10 10 11 11 12 12 11 11 10 9 10 10 9 9 10 12 12 11 11 10 9 9 10 13 15 17 16 13 13 14 11 12 16 16 15 12 11 13 18 16 11 11 13 10 6 8 11 10 9 9 6 3 3 3 1 1 0 1 2 3 2 2 3 2 1 2 4 6 9 10 8 6 5 6 7 8 8 8
4 5 7 9 10 9 9 9 10 10 10 9 9 10 10 11 11 11 10 10 10 11 10 10 10 12 13 13 11 9 10 11 13 15 17 17 13 12 16 15 11 14 18 15 13 12 13 17 19 15 9 8 9 9 6 6 10 11 9 8 7 5 3 3 2 1 1 1 2 3 1 2 2 2 0 1 3 2 5 9 10 8 6 6 8 8 9 9
3 4 5 7 8 8 8 8 9 9 9 9 8 8 8 9 9 9 9 10 10 10 11 11 11 11 12 12 11 11 13 13 12 14 16 14 11 14 18 14 10 15 17 13 12 14 15 17 16 12 8 6 6 9 7 5 9 11 10 9 8 7 4 2 4 3 2 0 2 2 1 2 2 1 1 2 3 3 4 6 8 9 8 8 9 9 9 10
3 3 4 5 6 7 7 7 8 8 8 8 8 8 8 8 8 8 8 8 9 9 10 11 11 12 12 12 13 13 12 10 10 13 13 11 12 15 17 12 9 13 14 10 11 12 12 13 14 11 7 3 3 7 9 9 9 10 11 11 9 8 6 3 0 1 2 1 2 1 1 3 2 2 3 3 4 5 6 6 7 8 9 10 10 9 9 9
3 2 2 4 5 6 6 6 6 7 7 7 8 8 8 8 8 8 8 8 8 8 9 10 10 11 11 12 13 11 9 9 11 12 12 12 13 13 13 11 8 10 11 9 8 7 9 14 13 8 5 3 2 4 7 10 10 10 11 11 11 10 9 7 4 3 3 4 5 5 3 3 4 4 6 7 8 8 8 7 7 8 9 11 10 10 10 10
4 3 1 3 3 4 5 5 5 6 6 6 7 8 8 8 8 8 8 8 8 8 8 9 9 10 10 10 9 8 9 10 10 11 12 12 12 11 11 11 9 10 11 10 7 5 9 15 11 5 5 5 4 2 3 7 9 11 11 12 13 13 13 13 10 7 7 7 10 11 10 10 10 10 11 12 12 11 10 9 9 8 9 10 11 11 11 11
5 4 2 1 1 2 3 4 5 5 5 5 5 6 7 7 7 7 8 8 9 9 9 9 9 8 9 8 8 8 10 10 9 11 12 12 12 12 12 11 10 10 10 10 8 6 10 13 9 4 4 3 2 2 2 5 8 11 13 13 14 14 16 18 16 13 13 11 12 15 16 16 15 15 16 15 14 13 11 10 10 9 10 11 13 13 13 12
6 5 4 2 1 1 2 3 4 5 5 5 5 5 6 6 6 6 6 7 7 8 8 8 8 8 8 8 9 10 10 10 11 12 13 13 13 13 12 10 9 9 10 9 7 7 11 13 9 5 3 1 1 2 3 5 7 10 13 14 15 16 18 19 19 19 19 17 18 19 20 21 18 15 14 14 14 14 13 12 11 11 11 13 14 14 13 13
7 5 5 4 2 2 2 2 3 4 4 5 4 4 5 5 6 6 5 5 5 5 6 8 8 8 8 8 8 9 10 10 12 13 13 13 12 11 10 9 8 10 11 8 5 8 12 12 8 6 5 4 3 3 4 5 8 10 13 15 17 19 20 21 22 22 23 26 26 24 26 27 21 16 15 15 16 17 14 12 12 12 12 13 13 14 14 14
8 7 7 6 5 3 2 1 2 3 4 5 4 4 4 4 5 6 6 5 5 5 6 6 7 7 7 7 8 8 9 9 11 12 12 10 10 9 8 7 9 12 12 8 6 9 11 9 7 5 4 4 4 5 6 8 10 11 13 15 18 20 22 24 24 24 26 29 27 27 30 26 15 12 15 16 18 19 15 12 12 12 12 11 11 13 14 14
10 9 8 8 7 6 4 3 2 1 2 4 4 4 4 3 4 5 6 6 6 5 5 6 6 7 7 8 8 7 7 8 9 10 9 8 7 6 5 6 9 12 11 8 7 9 10 9 7 4 4 5 5 6 8 10 13 16 17 18 20 22 22 22 23 23 25 25 25 28 28 17 6 8 11 13 18 19 15 13 13 11 11 10 9 10 12 13
13 11 10 9 9 8 6 6 4 2 2 4 4 4 4 4 4 4 5 6 7 7 6 6 6 6 6 7 7 6 7 8 9 8 7 7 7 5 4 5 7 9 10 8 7 8 9 8 8 6 5 6 6 6 8 9 11 13 12 12 15 18 19 20 22 21 20 21 24 25 19 12 9 11 11 13 17 16 14 13 11 10 10 9 9 9 10 12
Wind_Direction
335 334 333 332 331 331 332 331 331 330 329 328 325 322 320 318 317 318 319 316 312 315 321 323 320 315 310 303 294 282 270 260 248 236 229 227 230 232 229 228 225 220 217 214 212 211 210 207 205 202 201 205 212 215 212 212 209 206 209 208 209 210 213 222 231 228 223 231 236 226 214 213 215 211 205 200 198 196 195 196 200 205 202 197 193 189 198 195
337 336 335 333 332 332 333 332 330 330 329 328 324 322 320 317 315 314 313 308 305 307 313 319 321 321 319 312 306 294 279 269 259 245 235 229 228 230 229 227 225 220 216 214 211 210 211 207 204 203 200 201 207 213 213 212 211 209 208 208 209 210 213 220 224 216 218 231 234 233 226 219 217 213 208 202 198 195 194 195 198 201 200 200 199 196 198 195
341 338 336 334 334 333 333 332 330 329 329 328 324 321 319 316 313 310 308 304 301 301 304 310 313 316 318 316 311 300 289 274 262 254 245 235 229 229 228 225 224 220 215 212 210 209 209 208 205 203 201 200 202 208 212 211 210 210 207 206 207 211 216 221 225 222 220 228 232 233 231 223 217 217 215 208 201 194 191 195 197 196 199 207 207 200 200 197
343 341 337 335 335 334 334 333 330 329 329 327 323 320 318 316 312 309 307 305 303 302 301 302 306 309 311 313 311 301 293 276 262 259 254 244 234 232 228 224 222 219 215 211 209 208 207 207 204 203 201 200 200 202 209 210 206 204 203 205 207 210 216 221 225 225 222 225 233 237 230 217 212 215 216 214 206 193 191 196 197 197 200 211 212 204 202 196
344 342 339 337 336 335 336 334 331 329 328 325 322 318 317 315 311 310 309 309 308 309 308 306 306 307 308 309 308 302 291 273 266 262 256 251 242 237 232 224 219 216 214 210 207 206 205 205 203 202 200 200 199 199 204 208 205 200 199 203 206 210 215 215 217 221 230 236 234 235 231 214 206 207 207 208 202 196 201 202 195 193 202 212 216 210 203 192
344 342 340 339 336 337 338 335 331 329 327 324 321 317 316 315 314 313 313 313 312 313 316 316 314 312 309 307 304 303 286 266 268 263 256 254 247 241 237 227 218 214 212 209 206 204 203 203 203 201 199 200 199 198 199 201 204 204 200 200 201 209 212 203 204 217 232 239 233 229 229 219 210 209 210 207 201 199 204 205 197 193 199 205 211 215 205 189
343 342 341 340 338 338 339 336 332 329 326 323 320 318 318 317 316 318 318 317 316 317 319 321 320 315 310 304 301 297 278 267 270 260 252 251 248 241 238 232 219 211 209 208 205 202 201 201 200 199 198 199 197 197 196 192 200 208 205 202 199 206 211 202 199 210 223 229 228 226 228 229 223 218 217 212 208 208 207 203 197 196 201 201 202 211 206 196
343 342 342 341 340 339 340 337 332 329 327 323 320 322 321 319 320 321 321 321 320 321 323 323 322 316 308 298 292 284 271 272 271 259 252 246 243 238 235 233 222 211 206 206 204 201 199 197 196 194 197 198 193 194 194 187 193 205 208 205 200 203 207 202 201 210 222 226 223 225 230 239 233 224 223 219 216 216 212 206 199 197 207 207 201 206 208 203
343 343 342 342 342 341 340 338 333 330 326 323 324 326 325 324 324 324 326 326 324 324 327 328 324 317 305 287 277 267 265 270 268 261 253 244 238 232 231 230 225 213 205 204 202 200 197 193 191 190 191 191 188 191 192 190 193 197 203 206 202 201 202 200 202 210 223 230 227 229 233 240 233 220 220 221 221 216 204 202 204 205 214 212 206 209 208 200
344 344 343 343 344 342 342 339 334 330 325 324 326 328 330 330 328 331 333 330 327 329 331 330 325 317 301 275 261 255 258 262 262 259 250 243 237 229 226 226 224 215 205 202 199 198 195 192 190 188 187 184 185 187 188 194 199 195 195 200 201 201 201 201 202 210 225 233 232 233 232 231 224 214 216 219 221 216 198 196 201 211 223 215 209 212 206 196
346 345 344 345 346 344 343 341 336 331 326 326 329 332 336 336 336 339 338 334 332 333 332 329 323 313 296 263 244 245 254 255 253 253 248 239 233 227 222 221 222 215 206 201 198 198 197 195 189 183 184 184 184 185 187 196 202 198 196 195 195 199 201 203 207 213 225 233 231 233 231 227 222 215 218 221 218 212 204 198 196 205 221 217 211 212 205 200
348 346 345 347 347 346 345 343 337 331 327 329 333 337 341 345 346 345 343 339 335 334 332 330 324 308 285 264 249 249 257 256 250 247 244 235 229 224 217 216 218 213 205 200 197 196 195 194 186 179 182 188 187 185 190 197 199 200 201 196 191 197 201 203 210 215 224 231 230 227 222 220 221 216 219 221 217 211 207 204 200 203 215 216 213 214 207 202
349 347 347 349 349 348 348 345 339 332 329 333 338 345 352 355 353 351 347 340 336 337 338 336 329 307 278 267 265 271 276 270 254 244 238 229 223 218 213 211 212 210 204 198 196 194 189 186 183 178 176 186 188 186 192 193 194 197 200 201 194 192 199 203 206 212 220 228 230 220 211 215 217 217 220 221 218 215 211 209 206 208 213 214 216 216 206 198
350 348 348 351 351 351 351 348 340 333 332 337 344 354 2 2 1 357 346 340 343 346 346 345 339 326 300 273 288 298 291 281 261 242 232 223 216 212 208 203 204 206 201 195 192 189 185 181 179 176 171 181 187 186 186 181 185 191 189 199 201 192 195 200 202 207 214 221 227 216 209 219 219 218 222 225 225 222 217 213 211 214 214 214 218 216 204 199
351 349 349 352 353 353 354 350 342 335 335 340 350 4 11 9 6 358 349 349 355 356 351 353 354 349 342 304 313 317 299 286 271 244 226 217 211 207 202 197 195 197 197 192 186 182 181 177 173 173 171 177 183 180 174 169 175 184 180 186 198 197 196 196 199 205 210 214 219 213 211 222 222 221 222 225 231 231 225 217 213 216 215 215 219 214 201 200
352 350 351 354 355 356 356 353 346 337 337 344 354 10 18 13 7 360 358 1 3 0 358 4 1 345 355 335 322 319 312 295 273 240 219 211 205 201 196 191 185 186 189 184 179 176 174 171 169 175 175 170 178 178 164 159 168 179 181 182 188 196 197 194 196 203 208 208 209 209 210 221 226 225 222 224 231 235 234 226 217 218 216 215 218 214 206 203
352 351 352 354 356 358 359 356 350 340 339 348 358 12 21 14 5 359 3 8 8 4 5 11 3 342 330 340 328 312 318 317 281 234 212 205 197 192 189 184 175 174 179 173 172 170 168 170 170 172 169 161 171 174 159 157 172 174 177 182 187 195 197 193 193 199 203 201 204 209 211 218 227 231 226 227 232 231 232 229 220 218 217 215 217 218 219 218
353 352 352 355 358 359 1 358 353 345 343 351 360 12 20 10 2 358 2 9 11 9 10 10 7 359 336 343 345 321 318 321 293 225 206 198 188 184 180 173 167 165 167 166 165 167 166 168 167 160 155 156 167 173 169 174 178 172 171 180 184 191 195 194 191 193 197 199 206 211 214 218 224 234 231 229 232 227 223 223 218 216 216 215 217 222 227 229
353 352 353 356 358 1 3 1 357 350 346 354 3 11 18 10 4 357 357 6 11 12 11 6 8 11 355 350 355 343 327 320 289 222 199 187 179 175 166 161 163 158 158 161 161 164 164 160 160 158 157 161 169 173 177 187 179 171 177 181 180 181 187 195 192 188 192 197 205 210 214 223 227 236 236 227 226 223 217 216 215 216 217 214 217 223 228 230
354 354 355 357 359 2 4 3 1 354 350 357 6 10 19 25 14 349 352 8 13 13 9 5 7 9 5 358 352 351 346 339 312 188 178 173 169 162 154 152 155 152 151 157 159 159 157 154 157 161 162 164 172 173 171 178 176 176 182 179 177 178 178 187 189 186 191 195 201 207 211 219 225 231 234 228 223 221 218 214 211 214 217 216 219 225 228 229
355 356 356 358 0 4 5 6 3 358 354 356 7 13 17 32 23 349 360 10 10 10 8 6 9 9 10 6 2 10 6 20 77 136 159 161 155 148 147 144 139 139 142 153 157 151 146 153 160 162 165 170 175 172 157 159 173 181 186 180 175 180 176 178 184 184 189 198 202 204 205 210 220 227 230 228 224 222 221 218 214 213 215 216 218 222 223 226
356 357 357 358 1 5 6 7 5 3 357 352 7 18 19 18 2 355 6 6 2 6 8 10 14 13 12 9 14 21 24 52 77 123 144 152 147 138 135 130 124 128 141 153 154 145 144 164 167 162 168 175 171 161 149 163 174 177 184 181 175 181 177 168 178 187 189 197 204 204 204 209 218 224 228 228 226 225 223 221 218 214 213 214 215 215 217 227
357 358 358 359 2 6 7 7 7 7 1 353 359 17 24 11 354 349 355 1 3 4 8 14 14 14 17 25 31 30 39 63 91 128 139 148 142 129 122 117 126 145 147 151 150 144 150 168 168 164 168 172 164 151 150 164 168 169 180 183 179 182 180 167 170 186 189 193 204 203 203 212 220 225 228 228 227 227 225 222 219 215 211 211 212 208 210 225
358 360 359 360 3 6 9 8 8 9 8 1 353 13 24 10 356 342 339 9 14 7 9 14 16 19 22 33 39 41 59 71 98 123 134 143 135 125 120 117 137 147 140 147 155 153 158 164 166 166 162 159 156 153 154 155 152 156 178 192 190 183 183 178 173 178 184 189 198 196 202 219 227 230 230 229 229 228 227 224 221 218 210 208 211 206 206 220
358 1 0 0 4 7 10 10 8 10 12 9 358 9 22 12 7 360 348 16 14 10 10 10 20 29 22 30 38 48 68 79 101 117 129 136 129 124 121 118 128 136 139 155 165 157 150 158 164 160 148 146 153 156 155 153 148 152 170 193 196 185 182 183 179 176 177 183 192 187 193 231 232 237 237 231 230 227 226 223 219 216 208 208 214 209 209 226
358 2 2 1 4 8 11 11 10 10 13 16 12 8 17 15 19 19 15 181 8 12 11 6 19 34 31 36 50 58 67 81 100 114 125 128 123 124 123 124 136 142 150 164 166 145 137 153 160 151 142 144 153 155 153 156 152 152 162 170 182 183 178 177 177 174 173 179 190 184 171 248 239 241 237 229 228 225 222 214 208 210 211 212 216 212 218 236
358 2 3 2 4 8 11 12 12 12 12 19 22 19 16 16 30 27 18 145 6 10 14 12 21 39 41 42 63 76 78 85 97 111 123 123 122 124 124 131 141 144 152 161 150 131 133 145 150 145 144 151 155 154 152 156 156 154 159 162 172 178 174 172 171 170 176 175 176 179 166 67 217 211 206 206 211 213 213 206 200 207 212 211 213 217 228 239
358 2 4 4 5 9 12 12 14 15 10 17 27 29 26 17 32 28 19 62 9 5 15 21 29 46 49 49 68 83 89 90 97 110 119 119 119 124 129 137 142 140 149 156 138 129 135 140 146 148 150 156 156 152 150 154 158 151 151 157 160 163 164 160 153 153 167 162 168 183 180 92 189 189 184 189 194 191 191 194 196 201 204 208 216 225 232 238
360 3 4 5 7 10 12 13 15 16 14 18 28 31 33 27 21 21 27 29 6 8 16 25 37 48 52 63 76 84 92 96 100 107 109 109 108 118 131 140 145 137 139 149 137 131 136 139 146 152 151 155 157 155 153 158 158 147 149 157 145 139 150 148 140 146 154 149 173 190 191 189 221 198 189 196 203 195 181 186 195 201 208 217 223 226 230 235
0 3 5 5 9 11 12 15 15 16 21 23 25 28 31 30 22 30 61 22 3 13 22 33 49 56 63 76 83 87 94 98 99 99 98 100 100 103 112 124 140 136 134 140 133 128 134 138 148 153 149 153 159 159 156 160 161 150 152 152 130 125 141 143 144 155 150 148 168 185 197 203 225 211 203 210 217 211 204 203 204 208 217 222 225 227 229 234
0 4 6 6 11 14 14 17 16 18 24 29 34 35 34 37 37 45 92 5 3 16 34 56 69 73 73 79 88 91 94 96 98 100 100 103 104 102 103 113 126 128 128 129 125 127 132 135 143 148 148 153 159 159 150 148 153 146 143 136 122 119 132 128 139 155 158 177 163 178 194 201 217 217 204 209 219 220 220 221 219 219 223 225 227 230 231 237
1 5 7 7 11 16 17 18 18 21 26 33 38 36 40 44 39 40 38 323 16 30 49 69 78 76 72 80 91 92 93 95 96 98 98 101 108 108 111 120 123 122 121 119 120 125 124 127 138 143 146 151 155 151 142 141 142 136 137 134 124 124 134 117 143 161 151 127 164 176 178 200 229 232 220 210 217 224 225 227 228 228 230 230 232 236 241 248
2 5 8 9 12 15 18 19 19 23 27 35 42 40 54 67 41 42 51 66 74 60 64 75 76 74 75 84 89 92 99 99 95 92 91 99 111 113 118 124 127 128 124 120 121 118 108 115 131 135 140 146 149 145 138 138 137 136 141 136 128 139 139 139 178 157 115 144 174 176 173 202 227 229 232 225 228 237 231 229 229 231 234 237 241 247 252 256
3 6 9 9 12 15 19 21 22 25 29 38 45 41 53 73 83 69 68 77 88 83 78 77 69 68 73 79 86 96 103 102 104 103 103 112 113 113 118 120 128 132 127 120 116 110 107 118 126 130 136 141 142 140 137 138 142 148 152 145 142 159 139 142 176 143 116 126 156 169 177 211 201 215 231 229 236 242 238 234 230 231 236 240 244 248 251 254
3 7 10 10 13 16 18 22 24 28 32 42 50 50 60 81 108 98 86 86 88 83 75 71 66 65 64 66 76 94 102 101 104 103 109 118 113 111 113 116 127 130 124 118 111 109 112 118 133 136 136 141 140 140 143 144 151 160 162 152 140 152 134 121 120 120 124 113 144 176 187 229 205 211 226 228 236 236 235 237 233 231 234 237 241 243 247 250
3 7 11 11 13 15 19 22 25 29 34 44 55 63 75 91 105 106 104 100 90 77 65 60 64 65 59 64 72 83 96 99 98 96 105 116 114 113 114 119 129 128 125 128 122 122 117 113 136 141 140 146 145 147 150 145 155 168 169 145 117 137 139 120 106 114 129 118 174 187 196 230 221 227 232 233 239 233 232 235 234 234 233 235 241 242 245 247
2 7 12 13 13 15 19 22 26 31 33 42 55 65 73 84 96 99 102 103 88 78 69 61 77 83 70 85 89 87 88 94 100 101 106 114 114 118 119 120 127 130 141 140 131 140 136 122 136 145 146 153 153 152 152 144 158 168 168 143 125 134 142 128 116 111 125 140 186 187 198 210 217 234 233 232 238 232 228 232 234 235 234 234 236 236 237 240
1 7 15 17 14 15 19 22 27 32 31 40 53 64 72 78 89 93 97 99 93 96 92 86 103 99 92 111 104 90 84 97 111 108 109 116 119 126 124 114 118 128 143 142 133 140 134 121 137 152 152 157 157 154 151 142 158 163 165 159 139 123 141 132 122 125 155 181 174 198 205 207 214 227 233 233 233 221 223 231 233 234 234 234 235 237 240 243
2 7 18 22 17 15 19 22 27 31 33 43 54 65 70 75 85 90 95 100 98 100 97 102 121 117 124 138 120 101 99 107 116 112 110 119 123 131 132 118 118 121 130 136 134 137 133 119 137 155 152 155 159 161 157 151 163 166 164 165 148 91 128 139 135 147 167 153 109 189 212 202 205 223 242 248 240 219 224 234 232 233 232 229 233 240 245 246
1 10 21 25 20 17 20 24 28 31 35 47 58 67 71 74 80 86 91 96 96 99 99 106 122 126 133 141 131 119 110 107 119 121 119 126 127 130 134 128 122 119 128 136 133 134 135 130 138 150 150 153 161 168 168 167 174 172 164 175 184 114 125 140 142 129 103 141 100 123 130 148 179 210 244 251 251 244 238 238 234 234 230 225 230 235 236 236
357 9 22 27 23 19 21 26 29 33 38 46 57 65 70 75 78 83 90 94 94 97 101 107 118 126 133 137 133 123 108 106 124 125 124 130 130 131 140 137 130 131 133 131 128 129 132 134 136 138 143 155 165 171 172 177 182 177 172 185 192 161 133 121 138 230 143 74 60 91 117 121 123 140 219 261 272 249 238 239 239 239 234 224 225 224 227 232
345 1 16 24 24 21 22 26 31 36 40 45 56 63 69 74 78 82 89 95 98 98 102 108 115 122 128 130 130 121 108 110 121 127 132 135 132 136 146 141 134 142 138 125 125 130 132 137 132 126 136 157 167 177 182 184 188 187 186 191 190 180 155 90 77 100 107 90 82 78 87 138 109 74 25 320 315 279 246 240 239 241 235 225 224 224 230 236
320 347 7 18 21 24 25 26 31 38 41 46 55 62 68 73 77 83 87 94 101 102 104 107 114 125 129 127 127 122 113 109 116 131 139 141 135 140 150 145 135 149 147 128 128 134 135 141 133 117 130 153 177 199 209 206 201 201 202 203 200 202 199 114 86 75 38 80 133 78 49 167 166 310 331 346 330 304 281 253 243 241 233 230 232 232 235 240
285 326 4 19 23 27 29 27 30 36 42 50 55 60 68 72 76 83 86 93 104 109 110 108 111 124 129 129 132 128 117 109 119 135 142 145 142 146 157 157 143 156 160 140 135 139 137 144 137 123 123 137 217 222 225 224 218 216 218 217 215 216 218 216 119 349 318 263 186 184 202 178 187 275 293 318 323 312 302 280 257 244 237 236 238 238 241 244
260 285 353 20 26 32 35 33 34 35 40 54 60 62 69 73 75 81 86 94 103 112 118 116 115 121 127 133 140 138 127 120 127 137 142 145 146 150 162 167 159 164 170 161 149 145 145 148 144 137 145 155 177 217 226 226 227 231 231 230 232 233 235 241 254 262 255 234 216 216 224 234 253 275 284 295 299 296 297 293 280 261 248 245 243 244 245 243
251 250 296 8 21 33 41 43 45 43 41 53 65 67 71 76 77 81 85 92 100 109 121 127 128 131 135 141 148 148 141 134 133 141 144 146 153 157 160 162 157 156 166 173 164 146 154 156 151 147 152 142 126 135 210 223 230 237 238 238 238 238 241 242 240 237 241 250 248 244 248 256 261 268 276 284 290 289 287 287 284 275 259 248 243 242 241 240
244 239 254 316 4 28 45 55 58 54 47 48 62 72 75 79 80 82 87 92 97 103 112 124 133 141 148 153 156 154 149 143 138 142 144 143 145 147 149 152 153 155 165 172 167 153 160 163 159 148 138 115 110 157 224 238 242 244 243 242 241 241 242 240 237 239 243 249 259 261 262 263 264 268 271 275 280 282 281 275 271 269 258 247 240 237 235 239
239 237 243 241 175 71 63 68 69 70 65 55 56 67 76 82 84 87 92 95 96 97 107 119 126 132 141 149 152 151 152 149 146 146 144 140 138 139 143 148 155 162 163 164 172 175 168 168 173 182 190 205 207 219 240 242 249 252 246 245 244 242 244 246 246 247 247 250 258 264 264 264 263 266 272 275 272 270 271 267 264 265 260 253 247 239 235 238
232 231 222 209 182 129 94 85 79 81 82 73 63 63 75 86 93 96 97 101 102 101 108 116 120 127 136 146 153 154 153 150 148 150 149 144 141 140 142 145 154 161 154 144 159 174 171 175 187 199 208 212 218 248 258 254 258 256 248 245 243 241 244 247 247 245 245 249 254 257 260 263 265 265 270 273 269 266 266 265 263 263 263 261 254 246 240 241
226 225 218 213 206 192 176 141 113 93 91 95 86 76 82 91 98 101 103 107 110 114 118 117 117 122 128 137 145 145 147 147 146 149 149 146 145 145 144 147 156 161 156 136 136 159 169 180 187 191 213 229 251 278 281 277 272 263 254 248 243 242 241 241 243 243 241 247 254 258 261 267 271 265 264 261 258 261 266 269 266 261 262 261 255 250 247 246
224 224 221 218 212 204 198 184 160 110 103 117 108 98 97 95 100 108 111 114 116 120 130 129 124 121 119 125 134 135 140 147 148 149 150 150 150 148 150 154 159 167 169 158 157 172 182 190 195 210 248 261 276 286 284 284 282 275 264 253 247 248 248 249 253 254 251 254 259 258 261 272 284 266 263 255 251 256 263 268 265 258 256 252 244 243 245 246
222 223 222 220 215 211 208 200 195 194 158 140 127 123 121 111 113 116 115 120 122 123 129 132 133 133 127 126 131 133 137 146 151 153 156 158 156 151 152 158 161 170 178 181 187 191 193 202 209 218 250 272 284 286 284 287 289 283 270 257 255 258 261 262 263 263 263 261 258 258 267 285 283 267 261 253 250 253 256 256 254 249 247 244 239 239 242 248
Height
3112 3110 3108 3106 3105 3103 3101 3099 3097 3095 3093 3092 3090 3089 3088 3087 3086 3085 3085 3085 3084 3084 3083 3083 3082 3082 3081 3080 3079 3079 3079 3078 3078 3079 3080 3081 3082 3084 3085 3087 3090 3092 3094 3096 3098 3100 3102 3105 3108 3112 3116 3120 3122 3125 3129 3132 3135 3137 3138 3140 3141 3144 3146 3147 3147 3147 3149 3150 3151 3152 3154 3154 3155 3156 3157 3159 3160 3162 3165 3167 3168 3170 3171 3172 3173 3174 3175 3176
3111 3109 3107 3106 3104 3102 3100 3098 3096 3094 3092 3090 3089 3088 3087 3086 3085 3084 3084 3084 3083 3083 3082 3082 3081 3081 3080 3079 3079 3078 3078 3077 3077 3078 3079 3080 3081 3082 3083 3085 3088 3090 3092 3094 3096 3098 3100 3103 3106 3109 3112 3116 3120 3124 3127 3130 3133 3135 3137 3140 3141 3144 3145 3145 3145 3146 3148 3150 3151 3152 3153 3154 3155 3156 3157 3159 3160 3161 3164 3165 3167 3169 3171 3172 3173 3173 3174 3176
3110 3108 3106 3105 3103 3101 3099 3097 3095 3093 3091 3089 3087 3086 3085 3084 3084 3083 3083 3082 3082 3082 3081 3081 3080 3080 3079 3079 3078 3077 3077 3076 3076 3076 3077 3078 3079 3080 3081 3083 3086 3088 3090 3092 3094 3097 3099 3102 3104 3107 3110 3114 3118 3122 3125 3129 3131 3134 3137 3139 3141 3143 3144 3144 3144 3145 3148 3150 3150 3152 3153 3154 3155 3156 3157 3158 3158 3160 3162 3164 3166 3168 3170 3171 3172 3174 3174 3176
3108 3107 3105 3104 3102 3100 3098 3096 3094 3091 3089 3088 3086 3085 3084 3083 3082 3082 3082 3081 3081 3080 3080 3079 3079 3078 3078 3077 3077 3076 3076 3075 3075 3076 3076 3076 3077 3078 3080 3081 3084 3086 3088 3090 3093 3095 3098 3100 3102 3105 3108 3111 3115 3119 3123 3127 3130 3133 3136 3137 3139 3140 3141 3142 3143 3145 3148 3149 3149 3151 3152 3153 3155 3155 3157 3158 3158 3160 3162 3164 3166 3168 3170 3171 3172 3174 3175 3176
3108 3106 3105 3103 3101 3099 3097 3095 3093 3090 3088 3087 3085 3084 3083 3082 3081 3081 3080 3080 3079 3079 3078 3078 3077 3077 3076 3076 3075 3075 3074 3073 3074 3075 3075 3075 3076 3077 3078 3080 3082 3084 3086 3089 3091 3093 3096 3098 3101 3103 3106 3109 3113 3117 3120 3125 3129 3131 3133 3135 3137 3139 3140 3141 3143 3146 3147 3148 3149 3150 3151 3152 3153 3154 3156 3158 3160 3162 3163 3164 3166 3168 3169 3171 3173 3174 3176 3176
3107 3105 3104 3102 3100 3098 3096 3094 3092 3090 3088 3086 3084 3083 3082 3081 3080 3080 3079 3079 3078 3077 3077 3076 3076 3075 3075 3075 3074 3074 3073 3072 3073 3074 3074 3074 3075 3076 3077 3078 3080 3082 3084 3087 3089 3092 3094 3097 3099 3102 3105 3107 3111 3114 3118 3123 3127 3129 3131 3133 3136 3138 3139 3140 3142 3145 3147 3148 3149 3150 3151 3151 3152 3153 3155 3158 3159 3160 3162 3164 3166 3167 3169 3170 3172 3174 3176 3177
3106 3104 3102 3101 3099 3097 3095 3092 3091 3089 3087 3085 3083 3082 3081 3080 3080 3079 3078 3077 3077 3076 3075 3075 3074 3074 3073 3073 3073 3072 3072 3071 3072 3072 3073 3073 3074 3074 3075 3076 3078 3080 3082 3085 3087 3090 3093 3095 3098 3101 3103 3105 3110 3114 3117 3122 3124 3126 3129 3133 3135 3136 3138 3139 3142 3144 3146 3147 3148 3150 3151 3152 3153 3153 3155 3157 3159 3160 3162 3164 3166 3167 3169 3170 3172 3174 3175 3177
3106 3103 3101 3100 3098 3096 3094 3092 3090 3088 3086 3084 3082 3081 3080 3080 3079 3078 3077 3076 3075 3075 3074 3073 3072 3072 3071 3071 3071 3071 3070 3070 3070 3070 3071 3072 3072 3073 3074 3075 3077 3078 3081 3083 3085 3088 3091 3094 3097 3100 3102 3105 3109 3112 3116 3119 3121 3124 3128 3132 3134 3136 3138 3140 3142 3144 3145 3146 3148 3150 3151 3152 3153 3154 3155 3157 3159 3160 3162 3165 3166 3168 3169 3171 3172 3174 3175 3176
3105 3103 3100 3099 3097 3095 3093 3091 3089 3087 3085 3083 3082 3081 3080 3079 3078 3077 3076 3075 3074 3073 3072 3071 3070 3069 3069 3069 3069 3068 3068 3068 3069 3069 3070 3070 3071 3072 3073 3074 3075 3077 3079 3081 3084 3087 3090 3092 3095 3098 3100 3105 3108 3110 3114 3117 3118 3121 3126 3130 3134 3136 3138 3140 3143 3144 3145 3146 3148 3150 3151 3152 3153 3154 3155 3157 3159 3160 3163 3165 3167 3168 3170 3171 3172 3173 3174 3175
3105 3102 3100 3098 3096 3094 3092 3090 3088 3086 3084 3083 3081 3080 3079 3078 3077 3076 3075 3074 3073 3072 3070 3068 3067 3067 3067 3067 3067 3066 3066 3067 3067 3067 3068 3069 3070 3071 3072 3073 3074 3076 3077 3079 3082 3085 3087 3090 3093 3096 3099 3103 3106 3108 3113 3115 3115 3120 3124 3129 3133 3136 3138 3140 3142 3144 3145 3146 3148 3149 3151 3152 3152 3153 3155 3157 3159 3161 3163 3165 3167 3169 3170 3171 3172 3173 3174 3175
3104 3102 3099 3097 3095 3093 3091 3089 3087 3085 3084 3082 3081 3079 3079 3078 3077 3076 3075 3073 3072 3070 3068 3067 3066 3065 3065 3065 3065 3064 3064 3065 3065 3066 3066 3067 3068 3069 3070 3072 3073 3074 3076 3078 3081 3084 3086 3089 3092 3095 3098 3101 3104 3108 3111 3113 3115 3120 3123 3128 3133 3135 3137 3140 3142 3143 3145 3145 3147 3149 3150 3151 3152 3154 3155 3157 3159 3161 3162 3164 3166 3168 3170 3171 3171 3172 3173 3174
3103 3101 3098 3096 3094 3092 3090 3088 3086 3085 3083 3082 3080 3079 3078 3077 3077 3076 3074 3073 3071 3069 3067 3066 3065 3064 3063 3063 3063 3063 3063 3063 3063 3064 3065 3066 3067 3068 3069 3070 3072 3073 3075 3077 3080 3083 3086 3090 3092 3095 3098 3101 3103 3107 3110 3112 3116 3121 3125 3128 3132 3134 3137 3139 3141 3143 3144 3145 3147 3148 3149 3151 3152 3154 3156 3158 3159 3160 3161 3163 3165 3167 3169 3170 3171 3172 3172 3173
3103 3100 3098 3096 3094 3091 3089 3087 3085 3084 3083 3081 3080 3079 3078 3077 3076 3075 3074 3072 3070 3068 3066 3065 3063 3062 3062 3061 3062 3062 3062 3062 3062 3062 3063 3064 3065 3067 3068 3069 3071 3073 3074 3076 3079 3082 3086 3089 3092 3094 3097 3100 3103 3107 3110 3113 3117 3121 3125 3129 3131 3134 3137 3139 3140 3142 3144 3145 3146 3148 3149 3150 3152 3154 3156 3157 3158 3159 3161 3163 3165 3167 3168 3169 3170 3171 3171 3172
3102 3100 3098 3095 3093 3091 3089 3087 3085 3084 3083 3081 3080 3079 3078 3077 3076 3075 3073 3071 3069 3067 3065 3064 3063 3061 3061 3061 3061 3061 3061 3061 3061 3061 3062 3063 3064 3066 3067 3069 3070 3072 3074 3076 3078 3082 3085 3089 3092 3094 3097 3099 3103 3106 3109 3113 3117 3121 3125 3129 3131 3133 3135 3137 3139 3141 3143 3145 3146 3148 3148 3149 3151 3153 3155 3156 3157 3159 3160 3163 3164 3166 3167 3168 3169 3170 3171 3172
3102 3099 3097 3095 3093 3090 3088 3086 3085 3084 3082 3081 3080 3079 3078 3077 3076 3075 3073 3071 3069 3067 3065 3064 3063 3061 3061 3061 3060 3060 3060 3060 3060 3060 3060 3061 3063 3064 3066 3068 3070 3071 3073 3075 3078 3081 3085 3088 3092 3094 3096 3099 3103 3106 3109 3113 3117 3120 3123 3126 3129 3131 3133 3136 3138 3140 3142 3144 3146 3147 3147 3148 3151 3152 3154 3155 3157 3159 3161 3162 3163 3164 3166 3168 3169 3169 3170 3172
3101 3099 3097 3095 3092 3090 3088 3086 3085 3084 3082 3081 3080 3079 3078 3077 3076 3075 3074 3071 3069 3067 3066 3064 3063 3062 3061 3061 3060 3059 3059 3059 3059 3059 3060 3060 3062 3064 3066 3068 3069 3071 3073 3075 3078 3081 3085 3088 3091 3094 3096 3099 3103 3105 3109 3113 3116 3119 3122 3124 3126 3128 3131 3134 3137 3139 3141 3143 3145 3146 3147 3148 3150 3152 3153 3154 3156 3159 3160 3161 3162 3164 3165 3167 3168 3169 3170 3171
3101 3099 3097 3094 3092 3090 3088 3086 3084 3084 3082 3081 3080 3079 3078 3077 3076 3076 3074 3072 3069 3068 3066 3064 3063 3062 3061 3061 3059 3059 3058 3058 3058 3058 3059 3060 3061 3063 3065 3067 3069 3071 3073 3075 3078 3081 3085 3088 3090 3094 3097 3100 3103 3105 3108 3112 3114 3117 3121 3123 3125 3126 3129 3132 3135 3138 3140 3142 3144 3145 3146 3148 3150 3152 3153 3154 3155 3157 3159 3160 3162 3164 3164 3165 3167 3169 3170 3171
3101 3099 3097 3094 3092 3090 3087 3086 3084 3083 3082 3081 3080 3079 3078 3077 3076 3076 3074 3072 3070 3068 3066 3065 3063 3062 3061 3060 3059 3058 3058 3057 3057 3058 3058 3059 3061 3063 3065 3068 3069 3071 3073 3076 3078 3081 3084 3088 3091 3094 3098 3101 3104 3105 3107 3108 3110 3114 3118 3120 3122 3126 3128 3130 3133 3136 3139 3141 3143 3144 3146 3148 3150 3152 3152 3154 3155 3156 3157 3158 3161 3163 3164 3165 3166 3168 3169 3171
3101 3099 3097 3094 3092 3090 3087 3086 3084 3083 3082 3081 3080 3079 3078 3077 3076 3076 3075 3073 3070 3068 3066 3065 3064 3063 3062 3060 3059 3058 3057 3057 3057 3057 3058 3059 3061 3063 3065 3068 3069 3071 3073 3076 3079 3082 3085 3088 3092 3094 3097 3100 3103 3105 3108 3109 3111 3115 3117 3118 3121 3124 3127 3130 3133 3136 3139 3141 3143 3144 3147 3149 3150 3151 3152 3153 3154 3156 3156 3157 3159 3161 3163 3164 3166 3167 3169 3170
3101 3099 3097 3094 3092 3090 3088 3086 3084 3083 3082 3081 3080 3079 3078 3077 3077 3076 3075 3073 3071 3069 3067 3066 3064 3063 3062 3061 3059 3058 3057 3057 3056 3057 3058 3059 3061 3064 3066 3068 3070 3072 3074 3077 3079 3082 3086 3089 3092 3094 3097 3100 3103 3106 3109 3111 3113 3115 3116 3118 3121 3123 3126 3130 3134 3137 3139 3140 3142 3145 3147 3149 3150 3151 3152 3153 3154 3155 3157 3157 3158 3160 3161 3163 3165 3167 3168 3169
3101 3099 3097 3095 3092 3090 3088 3086 3085 3084 3083 3081 3080 3079 3078 3078 3078 3077 3075 3073 3072 3070 3068 3066 3065 3064 3062 3061 3060 3059 3058 3057 3057 3057 3059 3060 3062 3064 3067 3069 3071 3073 3075 3078 3081 3083 3087 3090 3092 3094 3097 3100 3103 3106 3110 3112 3113 3114 3115 3118 3122 3124 3127 3131 3134 3136 3138 3140 3142 3145 3147 3148 3149 3150 3151 3152 3153 3155 3156 3157 3158 3159 3161 3163 3164 3166 3167 3168
3101 3099 3097 3095 3092 3090 3088 3086 3085 3084 3083 3082 3081 3080 3079 3078 3078 3077 3076 3074 3073 3072 3070 3067 3065 3064 3063 3061 3060 3059 3059 3058 3058 3058 3060 3062 3063 3065 3068 3070 3072 3074 3077 3079 3082 3084 3087 3090 3092 3095 3098 3100 3103 3107 3110 3111 3112 3113 3116 3118 3121 3124 3128 3132 3136 3137 3138 3141 3143 3145 3146 3147 3148 3149 3150 3151 3152 3154 3155 3157 3158 3158 3160 3162 3164 3165 3167 3168
3101 3099 3097 3095 3093 3090 3088 3087 3085 3084 3083 3082 3081 3080 3079 3078 3078 3077 3077 3076 3074 3073 3071 3068 3066 3065 3064 3062 3061 3060 3059 3059 3059 3060 3061 3063 3065 3066 3069 3072 3074 3076 3078 3080 3083 3085 3087 3090 3093 3096 3098 3101 3105 3109 3110 3111 3112 3114 3117 3119 3121 3124 3127 3131 3134 3137 3139 3141 3143 3145 3146 3147 3148 3149 3149 3151 3152 3153 3154 3156 3157 3158 3159 3161 3163 3164 3165 3167
3101 3099 3097 3095 3093 3091 3089 3087 3086 3084 3083 3082 3081 3080 3079 3079 3078 3078 3077 3076 3075 3074 3072 3070 3068 3066 3065 3064 3062 3062 3061 3060 3061 3062 3063 3066 3067 3068 3070 3072 3075 3078 3080 3083 3085 3086 3088 3090 3094 3097 3099 3103 3106 3109 3110 3111 3113 3116 3118 3119 3121 3124 3127 3130 3133 3137 3140 3142 3143 3145 3146 3146 3147 3148 3149 3150 3151 3151 3153 3155 3156 3157 3159 3160 3161 3162 3164 3166
3101 3099 3097 3095 3094 3091 3089 3087 3086 3085 3084 3082 3081 3081 3080 3079 3079 3078 3077 3077 3076 3075 3072 3070 3069 3067 3066 3065 3064 3064 3062 3062 3063 3064 3066 3068 3069 3070 3072 3074 3077 3079 3081 3083 3085 3086 3089 3092 3095 3098 3101 3105 3107 3109 3110 3111 3113 3116 3118 3120 3122 3124 3127 3131 3134 3137 3140 3141 3143 3144 3146 3146 3146 3147 3148 3148 3149 3150 3152 3153 3155 3157 3158 3159 3160 3162 3164 3165
3102 3100 3098 3096 3094 3092 3090 3088 3086 3085 3084 3083 3082 3081 3080 3080 3079 3078 3078 3077 3077 3075 3073 3071 3069 3068 3067 3066 3066 3065 3065 3065 3065 3067 3068 3070 3072 3072 3073 3075 3077 3080 3082 3083 3085 3087 3090 3093 3096 3100 3103 3106 3108 3109 3111 3113 3114 3117 3119 3121 3123 3125 3128 3131 3134 3137 3139 3140 3142 3144 3145 3145 3145 3145 3146 3147 3148 3149 3150 3152 3154 3156 3157 3158 3159 3162 3164 3165
3102 3100 3098 3096 3094 3092 3090 3089 3087 3086 3085 3083 3082 3081 3081 3080 3079 3079 3077 3078 3078 3077 3075 3073 3071 3070 3069 3068 3067 3067 3067 3068 3068 3070 3071 3072 3074 3074 3075 3076 3078 3080 3082 3084 3086 3089 3092 3094 3098 3102 3104 3106 3108 3110 3112 3114 3115 3117 3120 3122 3124 3126 3129 3132 3135 3137 3138 3140 3142 3143 3144 3145 3144 3144 3145 3146 3147 3148 3150 3151 3153 3154 3156 3158 3160 3161 3163 3164
3102 3100 3098 3097 3095 3093 3091 3089 3087 3086 3085 3084 3083 3081 3081 3080 3080 3079 3078 3080 3082 3079 3077 3076 3074 3073 3071 3070 3070 3069 3069 3070 3071 3073 3074 3075 3076 3076 3077 3078 3079 3081 3084 3085 3087 3091 3094 3096 3099 3102 3104 3106 3109 3111 3113 3114 3116 3119 3122 3123 3125 3128 3131 3133 3136 3138 3139 3140 3142 3143 3144 3145 3144 3145 3146 3147 3147 3148 3149 3151 3152 3154 3156 3158 3160 3161 3162 3163
3103 3101 3099 3097 3095 3094 3092 3090 3088 3087 3086 3085 3083 3082 3081 3080 3080 3079 3079 3082 3084 3081 3079 3079 3077 3075 3074 3073 3073 3072 3072 3072 3073 3075 3076 3077 3078 3079 3079 3080 3082 3083 3086 3087 3089 3092 3095 3098 3100 3103 3105 3107 3110 3112 3114 3116 3117 3120 3122 3124 3127 3130 3132 3135 3137 3138 3139 3141 3142 3143 3144 3145 3144 3144 3146 3147 3148 3148 3150 3151 3152 3154 3156 3158 3159 3160 3161 3161
3103 3101 3099 3098 3096 3094 3093 3091 3089 3087 3086 3085 3084 3083 3082 3081 3080 3079 3081 3085 3085 3083 3082 3081 3079 3078 3077 3076 3075 3075 3075 3075 3076 3077 3079 3079 3080 3081 3082 3083 3085 3086 3087 3090 3091 3094 3097 3099 3102 3104 3106 3109 3111 3113 3116 3118 3119 3120 3123 3125 3128 3131 3134 3136 3138 3138 3140 3141 3142 3142 3143 3144 3144 3144 3145 3146 3147 3149 3150 3151 3152 3154 3155 3157 3158 3159 3160 3160
3104 3102 3100 3098 3097 3095 3093 3092 3090 3088 3087 3086 3085 3084 3083 3082 3080 3081 3085 3087 3085 3085 3084 3082 3081 3080 3080 3079 3078 3078 3079 3079 3079 3080 3081 3081 3082 3083 3084 3085 3088 3088 3090 3092 3094 3097 3099 3100 3103 3105 3108 3110 3112 3115 3117 3119 3120 3122 3124 3125 3128 3132 3135 3137 3138 3139 3140 3141 3141 3142 3143 3144 3144 3144 3144 3146 3147 3148 3149 3150 3151 3153 3154 3156 3156 3157 3158 3159
3104 3102 3101 3099 3097 3096 3094 3093 3091 3089 3088 3087 3086 3085 3084 3083 3083 3084 3086 3086 3087 3087 3085 3084 3084 3082 3082 3082 3081 3081 3081 3081 3082 3082 3083 3084 3084 3085 3085 3087 3089 3090 3093 3095 3096 3099 3101 3103 3105 3106 3109 3111 3113 3115 3117 3120 3121 3123 3125 3125 3127 3132 3136 3138 3139 3139 3140 3141 3141 3142 3143 3144 3143 3143 3144 3145 3146 3147 3148 3149 3151 3152 3153 3154 3155 3156 3158 3158
3105 3103 3101 3099 3098 3096 3095 3094 3092 3090 3089 3087 3087 3086 3085 3085 3086 3088 3087 3086 3088 3088 3087 3086 3086 3085 3085 3084 3083 3083 3084 3084 3084 3085 3086 3086 3087 3087 3088 3089 3090 3091 3094 3096 3098 3100 3103 3106 3107 3108 3110 3112 3113 3115 3117 3120 3122 3124 3126 3126 3128 3131 3135 3138 3139 3138 3139 3141 3141 3142 3143 3143 3142 3142 3143 3144 3146 3147 3148 3149 3150 3151 3152 3153 3154 3155 3156 3157
3106 3104 3102 3100 3099 3097 3096 3094 3093 3092 3090 3089 3088 3087 3086 3087 3089 3090 3089 3088 3089 3089 3089 3088 3087 3087 3087 3086 3085 3086 3086 3086 3087 3087 3087 3088 3088 3089 3091 3092 3093 3094 3095 3097 3099 3101 3104 3107 3109 3110 3111 3113 3115 3116 3118 3120 3122 3124 3126 3127 3128 3129 3131 3134 3135 3136 3138 3140 3141 3142 3143 3142 3141 3141 3142 3143 3144 3145 3146 3147 3148 3149 3151 3152 3153 3154 3154 3155
3106 3104 3102 3101 3100 3098 3097 3096 3094 3093 3092 3090 3089 3088 3087 3089 3090 3090 3090 3090 3090 3090 3090 3090 3089 3089 3089 3089 3088 3088 3087 3088 3089 3089 3090 3090 3091 3092 3093 3094 3096 3097 3097 3098 3101 3103 3105 3108 3110 3111 3113 3115 3116 3118 3119 3120 3122 3125 3126 3127 3128 3129 3129 3131 3133 3135 3136 3139 3140 3141 3141 3140 3139 3140 3141 3142 3143 3143 3144 3146 3147 3148 3149 3150 3151 3152 3153 3153
3107 3105 3103 3102 3100 3099 3098 3097 3096 3094 3093 3092 3090 3089 3089 3090 3091 3091 3091 3091 3091 3091 3091 3091 3091 3091 3091 3091 3091 3091 3090 3090 3091 3092 3092 3093 3094 3095 3095 3097 3098 3099 3100 3100 3101 3104 3106 3109 3111 3112 3114 3116 3117 3119 3120 3121 3123 3125 3127 3127 3128 3129 3130 3131 3133 3135 3136 3137 3139 3139 3139 3139 3139 3139 3140 3140 3141 3142 3143 3144 3145 3146 3147 3148 3149 3150 3151 3151
3107 3106 3104 3102 3101 3100 3099 3098 3097 3096 3095 3093 3091 3090 3091 3091 3092 3092 3092 3091 3092 3092 3091 3091 3092 3092 3093 3093 3092 3093 3092 3093 3093 3093 3094 3095 3097 3098 3098 3099 3100 3101 3101 3102 3102 3104 3105 3109 3113 3114 3115 3117 3118 3120 3121 3122 3123 3125 3126 3128 3129 3130 3130 3131 3133 3135 3136 3137 3137 3137 3138 3138 3138 3138 3139 3139 3140 3141 3141 3142 3143 3145 3146 3147 3148 3149 3150 3151
3107 3106 3104 3103 3102 3101 3100 3099 3098 3097 3096 3094 3093 3092 3093 3093 3093 3092 3092 3092 3092 3092 3092 3092 3092 3093 3094 3094 3094 3094 3094 3094 3095 3095 3096 3097 3098 3100 3101 3101 3102 3103 3103 3103 3104 3106 3106 3110 3114 3116 3116 3118 3120 3121 3123 3123 3124 3125 3127 3128 3129 3130 3131 3131 3133 3135 3135 3135 3136 3137 3137 3137 3138 3138 3138 3139 3139 3140 3141 3141 3143 3144 3145 3146 3147 3148 3149 3150
3108 3107 3105 3104 3103 3102 3101 3100 3099 3098 3097 3096 3094 3094 3094 3094 3094 3093 3093 3093 3093 3093 3093 3093 3093 3094 3094 3095 3095 3095 3095 3095 3096 3096 3097 3098 3099 3101 3102 3103 3104 3105 3106 3106 3106 3108 3108 3110 3115 3118 3118 3120 3121 3122 3123 3124 3125 3126 3127 3129 3130 3130 3131 3132 3132 3133 3134 3134 3134 3136 3137 3137 3137 3137 3138 3139 3139 3140 3140 3141 3142 3143 3144 3145 3146 3147 3147 3148
3108 3107 3106 3104 3104 3103 3102 3101 3100 3099 3098 3097 3096 3096 3096 3095 3095 3095 3094 3094 3094 3094 3094 3094 3094 3094 3095 3096 3096 3097 3097 3097 3097 3097 3098 3099 3101 3102 3104 3105 3106 3107 3108 3108 3109 3110 3110 3111 3114 3118 3120 3121 3122 3123 3124 3125 3126 3127 3128 3129 3130 3130 3131 3132 3133 3133 3133 3133 3133 3135 3137 3137 3137 3137 3137 3138 3138 3139 3139 3140 3141 3142 3143 3143 3144 3145 3146 3146
3108 3107 3106 3105 3104 3104 3103 3102 3101 3100 3099 3099 3098 3098 3097 3097 3097 3096 3096 3096 3095 3095 3095 3095 3095 3095 3096 3097 3097 3098 3098 3098 3098 3098 3099 3101 3102 3104 3105 3106 3107 3108 3109 3110 3111 3112 3113 3113 3115 3118 3121 3122 3123 3124 3125 3126 3126 3127 3128 3129 3129 3131 3131 3131 3133 3133 3133 3134 3134 3135 3136 3137 3137 3137 3137 3137 3137 3138 3138 3139 3140 3141 3142 3142 3143 3144 3144 3145
3108 3107 3106 3106 3105 3104 3103 3103 3102 3101 3100 3100 3099 3099 3099 3098 3098 3098 3097 3097 3097 3097 3096 3097 3097 3097 3097 3098 3099 3099 3100 3100 3100 3100 3101 3103 3104 3105 3106 3108 3109 3110 3111 3112 3113 3113 3114 3116 3117 3119 3121 3123 3124 3125 3126 3126 3127 3128 3129 3129 3130 3131 3131 3132 3132 3133 3133 3134 3135 3135 3136 3136 3136 3137 3137 3137 3137 3137 3137 3138 3139 3140 3141 3141 3142 3143 3143 3144
3107 3107 3107 3106 3105 3105 3104 3103 3103 3102 3102 3101 3101 3100 3100 3100 3100 3100 3099 3099 3098 3098 3098 3098 3098 3098 3099 3099 3100 3101 3101 3102 3103 3103 3103 3104 3105 3106 3108 3109 3110 3111 3112 3113 3114 3115 3116 3117 3119 3121 3123 3124 3125 3126 3126 3127 3127 3128 3129 3129 3130 3131 3132 3132 3133 3133 3134 3134 3135 3135 3135 3136 3136 3136 3136 3136 3136 3136 3137 3137 3138 3139 3140 3141 3141 3142 3143 3143
3107 3107 3107 3106 3106 3105 3105 3104 3103 3103 3103 3102 3102 3101 3101 3101 3101 3101 3101 3100 3100 3100 3100 3100 3100 3100 3100 3101 3101 3102 3103 3103 3104 3105 3105 3106 3107 3108 3109 3110 3111 3113 3114 3115 3116 3116 3117 3119 3121 3122 3125 3126 3127 3126 3126 3127 3127 3128 3129 3130 3130 3131 3132 3133 3133 3133 3134 3134 3134 3135 3135 3135 3135 3135 3135 3136 3136 3136 3137 3137 3138 3138 3139 3140 3141 3141 3142 3142
3107 3107 3107 3106 3106 3105 3105 3105 3104 3104 3103 3103 3103 3102 3102 3102 3102 3102 3102 3102 3101 3101 3101 3101 3101 3101 3102 3102 3103 3103 3104 3104 3105 3106 3107 3108 3109 3109 3111 3112 3113 3114 3115 3116 3117 3117 3118 3120 3121 3123 3124 3126 3126 3126 3125 3126 3127 3128 3129 3130 3131 3131 3132 3133 3133 3133 3133 3133 3134 3134 3134 3134 3134 3135 3135 3135 3136 3136 3136 3137 3137 3138 3138 3139 3139 3140 3140 3140
3106 3107 3107 3106 3106 3106 3106 3105 3105 3104 3104 3104 3103 3103 3103 3103 3103 3103 3103 3103 3103 3103 3103 3103 3103 3103 3103 3104 3104 3104 3105 3105 3106 3107 3108 3109 3110 3111 3112 3113 3113 3115 3116 3117 3118 3118 3119 3120 3122 3122 3123 3124 3124 3124 3125 3126 3127 3128 3128 3129 3130 3131 3131 3132 3133 3132 3133 3133 3132 3132 3133 3133 3133 3134 3134 3134 3135 3135 3135 3136 3136 3136 3137 3137 3138 3138 3138 3138
3106 3106 3106 3106 3106 3106 3106 3106 3105 3105 3105 3104 3104 3104 3104 3104 3104 3104 3104 3104 3104 3104 3104 3104 3104 3104 3104 3105 3105 3105 3106 3107 3107 3108 3109 3110 3110 3112 3113 3114 3114 3115 3116 3117 3118 3119 3120 3121 3122 3122 3123 3124 3124 3125 3125 3126 3126 3127 3128 3128 3129 3130 3130 3131 3131 3131 3132 3132 3131 3131 3132 3132 3132 3132 3132 3133 3133 3134 3134 3134 3134 3135 3135 3135 3135 3136 3136 3137
3105 3105 3106 3106 3106 3106 3106 3106 3106 3105 3105 3105 3105 3105 3104 3104 3105 3105 3105 3105 3105 3105 3105 3105 3105 3105 3105 3106 3106 3106 3107 3108 3108 3109 3110 3111 3111 3112 3113 3115 3115 3116 3117 3118 3118 3119 3120 3121 3122 3123 3123 3124 3124 3125 3125 3126 3126 3126 3126 3127 3128 3128 3128 3129 3130 3130 3131 3130 3129 3129 3129 3129 3130 3131 3131 3132 3132 3132 3132 3133 3133 3133 3133 3133 3134 3134 3135 3135
3104 3105 3105 3105 3106 3106 3106 3106 3106 3106 3105 3105 3105 3105 3105 3105 3105 3105 3106 3106 3106 3106 3106 3106 3106 3106 3107 3107 3107 3107 3108 3109 3109 3110 3111 3112 3113 3113 3114 3115 3116 3117 3118 3118 3119 3119 3120 3122 3123 3123 3124 3124 3124 3125 3125 3125 3125 3125 3125 3125 3125 3126 3126 3127 3127 3128 3128 3127 3126 3127 3126 3126 3128 3130 3130 3130 3130 3130 3130 3131 3131 3131 3131 3132 3132 3133 3133 3134
3103 3104 3104 3105 3105 3106 3106 3106 3106 3106 3106 3105 3106 3106 3106 3106 3106 3106 3106 3106 3107 3107 3107 3107 3107 3107 3108 3108 3108 3109 3109 3110 3111 3111 3112 3113 3114 3114 3115 3116 3116 3117 3118 3119 3119 3120 3121 3122 3123 3123 3124 3124 3124 3124 3124 3124 3124 3123 3123 3123 3123 3123 3124 3124 3124 3125 3125 3124 3124 3126 3124 3124 3126 3128 3128 3128 3128 3128 3129 3129 3129 3129 3130 3130 3130 3131 3132 3133
3102 3103 3103 3104 3104 3105 3105 3106 3106 3106 3106 3106 3106 3106 3106 3106 3106 3106 3106 3107 3107 3108 3108 3108 3108 3108 3109 3109 3110 3111 3111 3112 3112 3113 3114 3114 3115 3115 3116 3116 3117 3118 3118 3119 3120 3121 3122 3123 3123 3124 3124 3124 3124 3124 3124 3123 3123 3122 3121 3121 3121 3120 3121 3121 3122 3122 3122 3123 3124 3124 3122 3122 3124 3126 3126 3126 3126 3126 3127 3127 3127 3128 3128 3129 3129 3130 3131 3131
3101 3102 3102 3103 3103 3104 3105 3105 3106 3106 3106 3106 3106 3106 3106 3107 3107 3107 3107 3107 3108 3108 3108 3109 3109 3110 3110 3110 3111 3112 3112 3113 3114 3114 3115 3115 3116 3116 3117 3117 3118 3118 3119 3120 3120 3121 3122 3123 3123 3124 3124 3123 3124 3123 3123 3123 3122 3119 3118 3118 3118 3118 3119 3119 3120 3120 3120 3121 3121 3120 3119 3121 3123 3124 3124 3124 3124 3125 3126 3126 3126 3127 3127 3128 3128 3128 3129 3130